Laconia, NH

9:56 PM EDT on July 22, 2017 (GMT -0400)
Laconia Municipal

Weather History for KLCI - December, 2014

Change the Weather History Date:

Saturday, December 13, 2014

  Actual Average Record
Temperature  
Mean Temperature 32 °F -  
Max Temperature 35 °F 33 °F 53 °F (2010)
Min Temperature 28 °F 17 °F -2 °F (1988)
Degree Days  
Heating Degree Days 34    
Moisture  
Dew Point 23 °F    
Average Humidity 69    
Maximum Humidity 75    
Minimum Humidity 60    
Precipitation  
Precipitation 0.00 in - - ()
Sea Level Pressure  
Sea Level Pressure 29.78 in    
Wind  
Wind Speed 9 mph (West)    
Max Wind Speed 15 mph    
Max Gust Speed 24 mph    
Visibility 10 miles    
Events      
Averages and records for this station are not official NWS values.
T = Trace of Precipitation, MM = Missing Value Source: NWS Daily Summary

Daily Weather History Graph

Daily Weather History Graph

Search for Another Location

Airport or City:

Trip Planner

Search our weather history database for the weather conditions in past years. The results will help you decide how hot, cold, wet, or windy it might be!

Date:

Astronomy

Dec. 13, 2014 Rise Set
Actual Time 7:10 AM EST 4:09 PM EST
Civil Twilight 6:37 AM EST 4:42 PM EST
Nautical Twilight 6:01 AM EST 5:18 PM EST
Astronomical Twilight 5:26 AM EST 5:53 PM EST
Moon 11:18 PM EST (12/13) 11:22 AM EST (12/13)
Length of Visible Light 10h 04m
Length of Day
8h 58m
Waning Gibbous, 58% of the Moon is Illuminated
Dec 13
Waning Gibbous
Dec 14
Last Quarter
Dec 21
New
Dec 28
First Quarter
Jan 4
Full

Hourly Weather History & Observations

Time (EST) Temp. Windchill Dew Point Humidity Pressure Visibility Wind Dir Wind Speed Gust Speed Precip Events Conditions
12:15 AM 30.2 °F 22.6 °F 21.2 °F 69% 29.82 in 10.0 mi West 8.1 mph - N/A   Clear
12:35 AM 30.2 °F 21.9 °F 21.2 °F 69% 29.81 in 10.0 mi West 9.2 mph - N/A   Clear
12:55 AM 30.2 °F 21.9 °F 21.2 °F 69% 29.80 in 10.0 mi West 9.2 mph - N/A   Clear
1:15 AM 28.4 °F 18.5 °F 21.2 °F 74% 29.80 in 10.0 mi WSW 11.5 mph 17.3 mph N/A   Partly Cloudy
1:35 AM 28.4 °F 20.4 °F 21.2 °F 74% 29.80 in 10.0 mi WSW 8.1 mph - N/A   Clear
1:55 AM 28.4 °F 20.4 °F 21.2 °F 74% 29.81 in 10.0 mi SW 8.1 mph - N/A   Partly Cloudy
2:15 AM 28.4 °F 20.4 °F 21.2 °F 74% 29.81 in 10.0 mi WSW 8.1 mph - N/A   Scattered Clouds
2:35 AM 28.4 °F 21.2 °F 21.2 °F 74% 29.81 in 10.0 mi West 6.9 mph - N/A   Mostly Cloudy
2:55 AM 30.2 °F 23.4 °F 21.2 °F 69% 29.81 in 10.0 mi WSW 6.9 mph - N/A   Overcast
3:15 AM 30.2 °F 22.6 °F 21.2 °F 69% 29.80 in 10.0 mi West 8.1 mph - N/A   Mostly Cloudy
3:35 AM 30.2 °F 23.4 °F 21.2 °F 69% 29.80 in 10.0 mi West 6.9 mph - N/A   Scattered Clouds
3:55 AM 28.4 °F 21.2 °F 21.2 °F 74% 29.80 in 10.0 mi WSW 6.9 mph - N/A   Clear
4:15 AM 30.2 °F 21.9 °F 21.2 °F 69% 29.80 in 10.0 mi West 9.2 mph - N/A   Clear
4:35 AM 30.2 °F 23.4 °F 21.2 °F 69% 29.80 in 10.0 mi West 6.9 mph - N/A   Mostly Cloudy
4:55 AM 30.2 °F 19.3 °F 21.2 °F 69% 29.80 in 10.0 mi WSW 15.0 mph 19.6 mph N/A   Mostly Cloudy
5:15 AM 30.2 °F 21.3 °F 23.0 °F 75% 29.80 in 10.0 mi WSW 10.4 mph 18.4 mph N/A   Overcast
5:35 AM 30.2 °F 24.3 °F 23.0 °F 75% 29.80 in 10.0 mi West 5.8 mph - N/A   Overcast
5:55 AM 30.2 °F 21.9 °F 23.0 °F 75% 29.80 in 10.0 mi West 9.2 mph 21.9 mph N/A   Overcast
6:15 AM 30.2 °F 21.3 °F 23.0 °F 75% 29.80 in 10.0 mi West 10.4 mph - N/A   Scattered Clouds
6:35 AM 30.2 °F 21.3 °F 23.0 °F 75% 29.80 in 10.0 mi SW 10.4 mph - N/A   Mostly Cloudy
6:55 AM 30.2 °F 20.8 °F 23.0 °F 75% 29.80 in 10.0 mi WSW 11.5 mph - N/A   Overcast
7:15 AM 30.2 °F 21.9 °F 23.0 °F 75% 29.80 in 10.0 mi WSW 9.2 mph - N/A   Overcast
7:35 AM 30.2 °F 21.9 °F 23.0 °F 75% 29.82 in 10.0 mi West 9.2 mph - N/A   Mostly Cloudy
7:55 AM 32.0 °F 24.8 °F 21.2 °F 64% 29.82 in 10.0 mi West 8.1 mph 18.4 mph N/A   Overcast
8:15 AM 32.0 °F 25.6 °F 21.2 °F 64% 29.81 in 10.0 mi West 6.9 mph 16.1 mph N/A   Mostly Cloudy
8:35 AM 32.0 °F 24.2 °F 23.0 °F 69% 29.82 in 10.0 mi WSW 9.2 mph - N/A   Mostly Cloudy
8:55 AM 32.0 °F 23.6 °F 21.2 °F 64% 29.81 in 10.0 mi West 10.4 mph 16.1 mph N/A   Overcast
9:15 AM 32.0 °F 24.2 °F 21.2 °F 64% 29.81 in 10.0 mi WSW 9.2 mph - N/A   Mostly Cloudy
9:35 AM 33.8 °F 27.7 °F 23.0 °F 65% 29.82 in 10.0 mi NW 6.9 mph 19.6 mph N/A   Mostly Cloudy
9:55 AM 33.8 °F 23.9 °F 23.0 °F 65% 29.82 in 10.0 mi WNW 15.0 mph 24.2 mph N/A   Scattered Clouds
10:15 AM 33.8 °F 25.3 °F 23.0 °F 65% 29.81 in 10.0 mi West 11.5 mph 17.3 mph N/A   Scattered Clouds
10:35 AM 33.8 °F 26.4 °F 23.0 °F 65% 29.80 in 10.0 mi West 9.2 mph - N/A   Mostly Cloudy
10:55 AM 33.8 °F 24.8 °F 23.0 °F 65% 29.79 in 10.0 mi West 12.7 mph 17.3 mph N/A   Mostly Cloudy
11:15 AM 33.8 °F 26.4 °F 23.0 °F 65% 29.78 in 10.0 mi West 9.2 mph 18.4 mph N/A   Mostly Cloudy
11:35 AM 33.8 °F 24.3 °F 23.0 °F 65% 29.78 in 10.0 mi WSW 13.8 mph 17.3 mph N/A   Mostly Cloudy
11:55 AM 33.8 °F 26.4 °F 23.0 °F 65% 29.78 in 10.0 mi WNW 9.2 mph 17.3 mph N/A   Overcast
12:15 PM 33.8 °F 24.8 °F 23.0 °F 65% 29.77 in 10.0 mi WNW 12.7 mph 18.4 mph N/A   Overcast
12:35 PM 33.8 °F 24.3 °F 24.8 °F 70% 29.77 in 10.0 mi WNW 13.8 mph 18.4 mph N/A   Overcast
12:55 PM 33.8 °F 24.8 °F 24.8 °F 70% 29.76 in 10.0 mi WNW 12.7 mph 17.3 mph N/A   Overcast
1:15 PM 35.6 °F 26.6 °F 24.8 °F 65% 29.76 in 10.0 mi WNW 13.8 mph 24.2 mph N/A   Overcast
1:35 PM 33.8 °F 24.8 °F 23.0 °F 65% 29.75 in 10.0 mi WNW 12.7 mph 17.3 mph N/A   Overcast
1:55 PM 33.8 °F 27.0 °F 23.0 °F 65% 29.75 in 10.0 mi West 8.1 mph 18.4 mph N/A   Overcast
2:15 PM 33.8 °F 28.6 °F 24.8 °F 70% 29.75 in 10.0 mi West 5.8 mph 17.3 mph N/A   Overcast
2:35 PM 33.8 °F 27.7 °F 24.8 °F 70% 29.75 in 10.0 mi West 6.9 mph - N/A   Scattered Clouds
2:55 PM 33.8 °F 25.8 °F 24.8 °F 70% 29.75 in 10.0 mi West 10.4 mph - N/A   Mostly Cloudy
3:15 PM 33.8 °F 27.0 °F 24.8 °F 70% 29.75 in 10.0 mi WSW 8.1 mph - N/A   Overcast
3:35 PM 33.8 °F 25.8 °F 23.0 °F 65% 29.75 in 10.0 mi West 10.4 mph - N/A   Overcast
3:55 PM 33.8 °F 27.0 °F 23.0 °F 65% 29.74 in 10.0 mi West 8.1 mph - N/A   Overcast
4:15 PM 33.8 °F 27.0 °F 23.0 °F 65% 29.75 in 10.0 mi West 8.1 mph - N/A   Overcast
4:35 PM 33.8 °F 26.4 °F 23.0 °F 65% 29.76 in 10.0 mi West 9.2 mph - N/A   Overcast
4:55 PM 33.8 °F 25.8 °F 23.0 °F 65% 29.76 in 10.0 mi WSW 10.4 mph - N/A   Overcast
5:15 PM 33.8 °F 25.8 °F 24.8 °F 70% 29.76 in 10.0 mi WSW 10.4 mph - N/A   Overcast
5:35 PM 33.8 °F 25.3 °F 23.0 °F 65% 29.76 in 10.0 mi West 11.5 mph 16.1 mph N/A   Overcast
5:55 PM 33.8 °F 28.6 °F 23.0 °F 65% 29.77 in 10.0 mi WSW 5.8 mph - N/A   Overcast
6:15 PM 33.8 °F 27.7 °F 23.0 °F 65% 29.77 in 10.0 mi West 6.9 mph - N/A   Overcast
6:35 PM 33.8 °F 25.8 °F 23.0 °F 65% 29.77 in 10.0 mi West 10.4 mph 17.3 mph N/A   Overcast
6:55 PM 33.8 °F 25.8 °F 23.0 °F 65% 29.76 in 10.0 mi West 10.4 mph - N/A   Overcast
7:15 PM 33.8 °F 28.6 °F 21.2 °F 60% 29.76 in 10.0 mi WSW 5.8 mph - N/A   Mostly Cloudy
7:35 PM 32.0 °F 25.6 °F 23.0 °F 69% 29.76 in 10.0 mi SW 6.9 mph - N/A   Partly Cloudy
7:55 PM 32.0 °F 27.5 °F 23.0 °F 69% 29.76 in 10.0 mi WSW 4.6 mph - N/A   Clear
8:15 PM 32.0 °F 26.4 °F 23.0 °F 69% 29.76 in 10.0 mi West 5.8 mph - N/A   Clear
8:35 PM 32.0 °F 27.5 °F 21.2 °F 64% 29.77 in 10.0 mi WSW 4.6 mph - N/A   Clear
8:55 PM 30.2 °F 23.4 °F 23.0 °F 75% 29.77 in 10.0 mi SW 6.9 mph - N/A   Clear
9:15 PM 30.2 °F 23.4 °F 23.0 °F 75% 29.76 in 10.0 mi WSW 6.9 mph - N/A   Clear
9:35 PM 30.2 °F 22.6 °F 23.0 °F 75% 29.77 in 10.0 mi WSW 8.1 mph - N/A   Partly Cloudy
9:55 PM 32.0 °F 26.4 °F 23.0 °F 69% 29.77 in 10.0 mi WSW 5.8 mph - N/A   Partly Cloudy
10:15 PM 30.2 °F 23.4 °F 23.0 °F 75% 29.76 in 10.0 mi WSW 6.9 mph - N/A   Mostly Cloudy
10:35 PM 32.0 °F 25.6 °F 24.8 °F 75% 29.76 in 10.0 mi West 6.9 mph - N/A   Overcast
10:55 PM 32.0 °F 26.4 °F 24.8 °F 75% 29.76 in 10.0 mi WSW 5.8 mph - N/A   Overcast
11:15 PM 32.0 °F 27.5 °F 24.8 °F 75% 29.76 in 10.0 mi WSW 4.6 mph - N/A   Overcast
11:35 PM 32.0 °F 25.6 °F 24.8 °F 75% 29.76 in 10.0 mi SW 6.9 mph - N/A   Overcast
11:55 PM 32.0 °F 26.4 °F 24.8 °F 75% 29.75 in 10.0 mi SSW 5.8 mph - N/A   Overcast